Location: Campestrin
(46.4667°N, 11.7167°E)
Time: 10:41:59
(UTC+00:00)

Cosmos 1992 Rocket - Pass Details

Date: 18 April 2021
Orbit: 759 x 765 km, 74.0° (Epoch: 06 May)

Event Time Altitude Azimuth Distance (km) Brightness Sun altitude
Rises 18:48:54 0° 340° (NNW) 3,231 8.0 -7.9°
Reaches altitude 10° 18:51:19 10° 344° (NNW) 2,302 7.1 -8.2°
Maximum altitude 18:56:29 61° 65° (ENE) 867 4.1 -9.0°
Drops below altitude 10° 19:01:37 10° 146° (SE) 2,290 5.9 -9.8°
Enters shadow 19:01:52 - 146° (SE) 2,383 6.0 -9.8°
